User: anonymous   Login
Location: Unspecified
(0.0000°N, 0.0000°E)
Time: 19:18:28
(UTC+00:00)
Language:

NNS O-23 - Orbit

View from above orbital plane
View from above orbital plane
View from above satellite
View from above satellite

Ground track
Ground track

The orbit data is extracted from the following two-line orbital elements,

1 19070U 88033A   17141.89988949 +.00000051 +00000-0 +90774-4 0  9994
2 19070 090.3644 272.5079 0189151 233.1351 240.5100 13.27408141407677
Epoch (UTC): 21 May 2017 21:35:50
Eccentricity: 0.0189151
inclination: 90.3644°
perigee height: 1014 km
apogee height: 1299 km
right ascension of ascending node: 272.5079°
argument of perigee: 233.1351°
revolutions per day: 13.27408141
mean anomaly at epoch: 240.5100°
orbit number at epoch: 40767

The dashed part of the orbit path shows where the satellite is in the earth's shadow,  

DLR